When you browse on this site, cookies collect data to enhance your experience and personalize the content and advertising you see.
Visit our Privacy Policy to learn more. By continuing to use the site, you agree to this use of cookies and data.
  • In Hungary
  • List of Countries
  • For 7 days
  • Water Temperature
  • Weather Map
  • News
  • Weather Widgets
  • user-avatar
    Login

    Hourly Weather Sosnino

    Today, 20 January, Monday

    Time Temperature Precipitation Wind Pressure Humidity
    00:00 0°C° 0 mm 5 mps 745 mmHg 90%
    01:00 0°C° 0 mm 5 mps 745 mmHg 88%
    02:00 -1°C° 0 mm 5 mps 745 mmHg 84%
    03:00 -1°C° 0.2 mm 5 mps 745 mmHg 88%
    04:00 -1°C° 0.2 mm 5 mps 745 mmHg 92%
    05:00 -2°C° 0.2 mm 5 mps 745 mmHg 96%
    06:00 -2°C° 0.3 mm 4 mps 745 mmHg 95%
    07:00 -2°C° 0.3 mm 4 mps 745 mmHg 95%
    08:00 -2°C° 0 mm 4 mps 746 mmHg 95%
    09:00 -2°C° 0.1 mm 4 mps 745 mmHg 95%
    10:00 -2°C° 0.1 mm 4 mps 745 mmHg 95%
    11:00 -2°C° 0.1 mm 4 mps 745 mmHg 96%
    12:00 -2°C° 0.1 mm 4 mps 745 mmHg 95%
    13:00 -2°C° 0.1 mm 5 mps 745 mmHg 94%
    14:00 -1°C° 0.1 mm 5 mps 745 mmHg 93%
    15:00 -1°C° 0 mm 5 mps 745 mmHg 91%
    16:00 -1°C° 0 mm 4 mps 745 mmHg 90%
    17:00 -1°C° 0 mm 4 mps 744 mmHg 88%
    18:00 -1°C° 0 mm 4 mps 744 mmHg 88%
    19:00 -1°C° 0 mm 5 mps 743 mmHg 89%
    20:00 -1°C° 0 mm 5 mps 743 mmHg 89%
    21:00 -1°C° 0.1 mm 5 mps 742 mmHg 91%
    22:00 -2°C° 0.1 mm 5 mps 741 mmHg 92%
    23:00 -4°C° 0.1 mm 5 mps 741 mmHg 94%

    Tomorrow, 21 January, Tuesday

    Time Temperature Precipitation Wind Pressure Humidity
    00:00 -2°C° 0.1 mm 5 mps 740 mmHg 94%
    01:00 -2°C° 0.1 mm 5 mps 740 mmHg 94%
    02:00 -2°C° 0.1 mm 5 mps 739 mmHg 94%
    03:00 -1°C° 0.4 mm 5 mps 738 mmHg 95%
    04:00 -1°C° 0.4 mm 5 mps 736 mmHg 95%
    05:00 -2°C° 0.4 mm 6 mps 735 mmHg 96%
    06:00 -1°C° 0.4 mm 6 mps 734 mmHg 93%
    07:00 +1°C° 0.4 mm 6 mps 733 mmHg 90%
    08:00 +2°C° 0.4 mm 7 mps 733 mmHg 87%
    09:00 +2°C° 0 mm 7 mps 732 mmHg 86%
    10:00 +2°C° 0 mm 6 mps 732 mmHg 86%
    11:00 +2°C° 0 mm 6 mps 731 mmHg 86%
    12:00 +2°C° 0 mm 6 mps 731 mmHg 86%
    13:00 +2°C° 0 mm 5 mps 731 mmHg 86%
    14:00 +2°C° 0 mm 5 mps 730 mmHg 86%
    15:00 +2°C° 0.4 mm 5 mps 729 mmHg 88%
    16:00 +2°C° 0.4 mm 5 mps 728 mmHg 90%
    17:00 +2°C° 0.4 mm 5 mps 727 mmHg 92%
    18:00 +1°C° 0.2 mm 5 mps 727 mmHg 89%
    19:00 -1°C° 0.2 mm 6 mps 727 mmHg 86%
    20:00 -1°C° 0.2 mm 6 mps 727 mmHg 83%
    21:00 -2°C° 0 mm 6 mps 727 mmHg 80%
    22:00 -3°C° 0 mm 6 mps 728 mmHg 76%
    23:00 -4°C° 0 mm 7 mps 728 mmHg 73%

    Day after tomorrow, 22 January, Wednesday

    Time Temperature Precipitation Wind Pressure Humidity
    00:00 -4°C° 0 mm 6 mps 728 mmHg 74%
    01:00 -4°C° 0 mm 6 mps 728 mmHg 75%
    02:00 -5°C° 0 mm 6 mps 728 mmHg 76%
    03:00 -5°C° 0 mm 6 mps 727 mmHg 78%
    04:00 -5°C° 0 mm 6 mps 726 mmHg 80%
    05:00 -5°C° 0 mm 5 mps 725 mmHg 82%
    06:00 -5°C° 0.2 mm 5 mps 725 mmHg 80%
    07:00 -5°C° 0.2 mm 5 mps 725 mmHg 77%
    08:00 -4°C° 0.2 mm 5 mps 724 mmHg 75%
    09:00 -4°C° 0 mm 5 mps 724 mmHg 74%
    10:00 -4°C° 0 mm 5 mps 724 mmHg 73%
    11:00 -4°C° 0 mm 5 mps 724 mmHg 72%
    12:00 -4°C° 0.1 mm 5 mps 724 mmHg 72%
    13:00 -4°C° 0.1 mm 5 mps 724 mmHg 73%
    14:00 -4°C° 0.1 mm 5 mps 724 mmHg 74%
    15:00 -5°C° 0.1 mm 5 mps 724 mmHg 76%
    16:00 -5°C° 0.1 mm 5 mps 724 mmHg 78%
    17:00 -5°C° 0.1 mm 5 mps 725 mmHg 80%
    18:00 -6°C° 0.1 mm 5 mps 725 mmHg 80%
    19:00 -6°C° 0.1 mm 5 mps 726 mmHg 80%
    20:00 -6°C° 0.1 mm 5 mps 726 mmHg 80%
    21:00 -6°C° 0.1 mm 6 mps 727 mmHg 80%
    22:00 -8°C° 0.1 mm 6 mps 728 mmHg 80%
    23:00 -9°C° 0.1 mm 6 mps 728 mmHg 81%

    23 January, Thursday

    Time Temperature Precipitation Wind Pressure Humidity
    00:00 -9°C° 0 mm 7 mps 729 mmHg 79%
    01:00 -11°C° 0 mm 7 mps 730 mmHg 77%
    02:00 -11°C° 0 mm 7 mps 731 mmHg 75%
    03:00 -12°C° 0 mm 7 mps 731 mmHg 73%
    04:00 -12°C° 0 mm 7 mps 732 mmHg 70%
    05:00 -12°C° 0 mm 7 mps 732 mmHg 67%
    06:00 -11°C° 0 mm 6 mps 733 mmHg 67%
    07:00 -11°C° 0 mm 6 mps 733 mmHg 66%
    08:00 -11°C° 0 mm 5 mps 733 mmHg 66%
    09:00 -10°C° 0 mm 6 mps 734 mmHg 65%
    10:00 -10°C° 0 mm 6 mps 734 mmHg 64%
    11:00 -10°C° 0 mm 6 mps 735 mmHg 64%
    12:00 -10°C° 0 mm 6 mps 736 mmHg 65%
    13:00 -10°C° 0 mm 6 mps 736 mmHg 66%
    14:00 -10°C° 0 mm 6 mps 737 mmHg 67%
    15:00 -11°C° 0 mm 5 mps 737 mmHg 69%
    16:00 -11°C° 0 mm 5 mps 738 mmHg 71%
    17:00 -11°C° 0 mm 5 mps 739 mmHg 73%
    18:00 -11°C° 0 mm 4 mps 739 mmHg 74%
    19:00 -10°C° 0 mm 3 mps 739 mmHg 75%
    20:00 -10°C° 0 mm 3 mps 740 mmHg 77%
    21:00 -10°C° 0 mm 3 mps 740 mmHg 77%
    22:00 -10°C° 0 mm 3 mps 740 mmHg 78%
    23:00 -10°C° 0 mm 3 mps 740 mmHg 79%

    24 January, Friday

    Time Temperature Precipitation Wind Pressure Humidity
    00:00 -10°C° 0 mm 3 mps 739 mmHg 77%
    01:00 -9°C° 0 mm 3 mps 739 mmHg 76%
    02:00 -9°C° 0 mm 3 mps 738 mmHg 74%
    03:00 -9°C° 0.2 mm 3 mps 737 mmHg 80%
    04:00 -10°C° 0.2 mm 4 mps 736 mmHg 86%
    05:00 -10°C° 0.2 mm 4 mps 736 mmHg 92%
    06:00 -8°C° 0.4 mm 4 mps 735 mmHg 93%
    07:00 -7°C° 0.4 mm 4 mps 734 mmHg 94%
    08:00 -6°C° 0.4 mm 5 mps 734 mmHg 95%
    09:00 -5°C° 0.2 mm 5 mps 734 mmHg 93%
    10:00 -4°C° 0.2 mm 4 mps 733 mmHg 92%
    11:00 -3°C° 0.2 mm 4 mps 733 mmHg 91%
    12:00 -2°C° 0 mm 5 mps 732 mmHg 91%
    13:00 -1°C° 0 mm 5 mps 732 mmHg 91%
    14:00 -1°C° 0 mm 5 mps 732 mmHg 91%
    15:00 -1°C° 0 mm 5 mps 732 mmHg 91%
    16:00 0°C° 0 mm 5 mps 731 mmHg 90%
    17:00 0°C° 0 mm 4 mps 731 mmHg 90%
    18:00 0°C° 0.1 mm 4 mps 731 mmHg 92%
    19:00 -1°C° 0.1 mm 4 mps 731 mmHg 94%
    20:00 -1°C° 0.1 mm 4 mps 731 mmHg 96%
    21:00 0°C° 0.3 mm 3 mps 731 mmHg 96%
    22:00 0°C° 0.3 mm 3 mps 731 mmHg 96%
    23:00 0°C° 0.3 mm 3 mps 731 mmHg 97%

    25 January, Saturday

    Time Temperature Precipitation Wind Pressure Humidity
    00:00 0°C° 0.1 mm 3 mps 732 mmHg 96%
    01:00 -1°C° 0.1 mm 3 mps 732 mmHg 96%
    02:00 -1°C° 0.1 mm 2 mps 732 mmHg 96%
    03:00 -1°C° 0 mm 2 mps 732 mmHg 96%
    04:00 -2°C° 0 mm 2 mps 732 mmHg 96%
    05:00 -2°C° 0 mm 2 mps 732 mmHg 97%
    06:00 -2°C° 0 mm 2 mps 733 mmHg 97%
    07:00 -2°C° 0 mm 2 mps 733 mmHg 97%
    08:00 -2°C° 0 mm 2 mps 733 mmHg 96%
    09:00 -2°C° 0 mm 2 mps 733 mmHg 94%
    10:00 -1°C° 0 mm 3 mps 734 mmHg 92%
    11:00 -1°C° 0 mm 3 mps 734 mmHg 89%
    12:00 -1°C° 0 mm 3 mps 734 mmHg 89%
    13:00 -1°C° 0 mm 3 mps 734 mmHg 89%
    14:00 -1°C° 0 mm 3 mps 734 mmHg 88%
    15:00 -1°C° 0 mm 3 mps 734 mmHg 89%
    16:00 -1°C° 0 mm 3 mps 734 mmHg 90%
    17:00 -1°C° 0 mm 3 mps 734 mmHg 91%
    18:00 -1°C° 0 mm 3 mps 734 mmHg 91%
    19:00 -1°C° 0 mm 3 mps 734 mmHg 92%
    20:00 -2°C° 0 mm 4 mps 735 mmHg 92%
    21:00 -2°C° 0 mm 4 mps 735 mmHg 90%
    22:00 -3°C° 0 mm 4 mps 735 mmHg 88%
    23:00 -3°C° 0 mm 4 mps 736 mmHg 86%
    Show more